User: anonymous   Login
Location: Fisheating Creek Campgrounds
(26.9333°N, 81.3167°W)
Time: 19:08:24
(UTC-05:00)
Language:

Cosmos 2221 Rocket - Orbit

View from above orbital plane
View from above orbital plane
View from above satellite
View from above satellite

Ground track
Ground track

The orbit data is extracted from the following two-line orbital elements,

1 22237U 92080B   15060.82148248  .00000473  00000-0  62011-4 0  9992
2 22237 082.5146 177.4879 0021158 068.4588 090.6616 14.78072938199582
Epoch (UTC): 01 March 2015 19:42:56
Eccentricity: 0.0021158
inclination: 82.5146°
perigee height: 620 km
apogee height: 650 km
right ascension of ascending node: 177.4879°
argument of perigee: 68.4588°
revolutions per day: 14.78072938
mean anomaly at epoch: 90.6616°
orbit number at epoch: 19958

The dashed part of the orbit path shows where the satellite is in the earth's shadow,  

DLR